Wind_Speed
3 3 2 2 2 2 2 2 3 2 2 1 1 1 1 1 1 1 1 2 2 3 3 3 4 4 5 5 5 6 5 5 5 6 6 6 6 6 6 5 5 5 6 6 6 6 7 7 7
3 3 3 3 2 2 1 1 2 2 1 1 1 1 1 1 1 1 2 3 3 3 4 4 5 5 6 6 6 6 6 6 6 6 7 7 7 7 6 6 5 6 6 6 6 7 7 7 7
3 3 3 3 3 2 1 1 1 1 1 1 1 1 2 2 2 2 2 3 3 4 4 5 5 6 6 7 7 7 7 7 7 7 7 8 7 7 6 7 6 6 6 6 6 7 7 7 7
3 3 3 3 3 2 2 1 1 1 1 1 2 2 3 3 3 3 3 3 4 4 5 5 5 6 6 7 8 8 8 8 7 8 8 8 8 8 7 7 7 7 8 7 7 7 7 7 7
4 4 4 3 3 3 2 2 2 2 2 2 3 3 3 3 4 4 4 4 4 5 5 5 6 6 7 8 7 8 8 8 8 8 8 8 8 8 8 8 8 8 8 8 8 8 8 8 8
5 4 4 4 4 3 3 3 3 3 3 3 3 3 4 4 4 4 5 5 5 5 6 6 7 7 7 8 8 8 9 8 9 9 9 9 9 9 9 9 8 9 9 9 8 9 9 9 9
5 5 5 4 4 4 4 4 4 4 4 3 4 4 5 5 5 5 6 6 6 6 6 7 7 8 7 7 8 9 9 9 9 9 9 9 9 9 9 9 9 9 9 9 9 9 9 9 9
6 6 6 5 5 5 6 5 5 5 5 5 5 5 5 6 6 6 6 7 7 7 7 8 8 8 8 8 9 9 10 10 10 9 9 9 8 9 10 10 10 10 9 9 9 9 9 9 9
7 7 6 6 6 6 6 6 6 6 6 5 5 6 6 6 6 6 6 7 7 7 8 8 8 8 9 9 10 10 10 11 10 10 9 9 9 9 9 10 10 10 10 9 10 9 9 9 9
8 8 7 7 7 6 7 6 6 7 6 6 6 6 6 7 7 6 6 7 7 7 8 8 8 8 9 9 10 10 10 10 10 9 9 9 9 9 10 10 10 10 9 10 10 10 10 10 10
8 8 8 7 7 7 7 7 7 7 6 6 6 6 7 7 7 6 6 7 7 7 7 8 8 9 9 9 10 10 10 10 10 10 10 10 10 10 10 10 9 10 10 10 10 10 10 10 10
8 8 7 7 8 8 8 8 7 7 8 7 7 7 7 7 7 7 7 7 8 8 7 7 8 9 10 10 10 10 10 10 11 10 10 10 10 10 10 10 10 10 10 10 10 10 10 10 10
8 8 8 8 8 8 8 8 8 8 8 8 8 7 7 8 8 8 8 8 8 9 8 8 8 9 9 10 10 11 10 10 10 11 10 10 10 10 10 10 10 10 10 10 10 10 11 10 10
8 9 9 9 9 9 9 9 9 8 8 8 8 8 8 8 8 8 8 8 8 9 9 9 9 10 10 11 11 11 11 10 10 10 10 11 11 11 10 11 11 11 11 11 11 11 11 11 11
9 9 9 9 9 9 10 10 10 9 9 8 9 8 8 8 9 8 8 8 8 8 9 10 11 11 11 11 11 11 10 11 10 10 10 11 11 12 12 11 11 11 10 11 11 11 11 11 12
10 10 11 10 11 11 11 11 10 10 10 9 9 9 9 9 9 9 9 9 9 9 10 10 10 10 11 11 11 10 10 10 10 10 10 11 11 11 11 11 11 10 10 10 10 11 11 12 12
11 11 12 12 12 11 12 12 11 11 11 10 10 10 10 10 11 10 10 10 10 10 10 10 10 11 11 11 11 10 10 10 10 10 10 10 10 11 10 10 10 10 10 10 10 11 11 12 12
11 12 12 12 12 11 11 11 10 11 11 11 11 11 11 11 11 11 11 11 12 11 11 11 11 11 11 11 11 11 11 11 11 10 10 10 10 10 10 10 9 10 11 11 11 11 12 12 12
12 12 12 12 12 12 11 11 10 10 11 11 11 11 11 11 11 11 11 11 12 12 12 12 12 11 11 11 12 12 11 11 11 10 10 10 10 10 11 10 10 11 11 11 11 12 12 12 12
13 13 12 11 12 12 12 12 11 11 11 11 11 11 11 11 11 11 11 11 12 12 12 13 12 12 12 11 12 12 11 10 10 10 10 10 10 10 11 11 11 11 11 11 12 12 12 12 13
14 14 12 12 12 12 12 12 12 12 12 11 11 11 11 12 11 11 11 11 12 12 13 13 12 12 12 12 12 12 11 10 10 11 11 11 11 11 11 12 12 12 11 12 12 12 13 13 13
14 14 13 13 13 13 13 13 12 13 13 12 12 12 12 12 12 12 12 11 12 12 13 12 12 12 12 12 12 11 11 11 11 11 11 11 11 12 12 12 13 13 13 13 13 13 13 13 13
14 14 14 14 14 14 14 14 14 13 13 13 13 13 13 13 12 12 12 12 12 12 12 12 12 11 11 12 12 12 12 12 13 13 13 13 12 13 13 14 14 14 14 13 13 14 14 14 14
15 15 15 15 15 15 13 14 14 13 14 13 13 13 13 13 13 13 12 12 13 13 13 13 13 12 12 12 12 12 12 13 14 14 14 15 14 14 15 15 15 15 15 15 14 14 14 15 15
15 15 15 16 15 15 14 14 14 14 14 14 13 13 13 13 13 13 13 13 13 13 14 14 14 14 13 13 14 14 14 14 15 15 15 16 16 16 16 16 16 16 16 15 15 15 16 16 16
14 15 15 16 15 15 15 15 14 14 15 14 14 15 14 14 14 14 13 14 14 15 14 14 14 15 15 14 15 15 16 16 16 16 17 17 17 17 17 16 16 16 17 16 16 16 17 17 18
15 15 15 15 16 16 16 16 14 14 15 15 15 15 15 16 16 15 14 15 16 16 16 16 16 15 15 16 16 16 16 17 18 18 18 18 19 18 18 17 17 17 17 17 18 18 18 19 19
16 16 16 16 16 17 17 16 15 15 15 15 15 16 16 17 17 17 17 17 17 18 18 18 17 17 17 17 18 18 17 17 18 19 20 20 20 20 19 19 19 18 18 19 19 19 19 20 21
16 16 17 17 17 17 17 16 16 16 15 15 16 16 17 18 18 18 18 18 19 20 19 19 19 19 19 19 19 19 19 19 19 19 20 20 20 20 20 20 20 20 20 20 20 20 20 21 22
17 17 18 18 18 18 18 17 17 17 17 17 16 17 18 19 19 19 19 19 20 20 20 20 21 20 21 21 20 20 20 20 20 20 20 21 21 21 22 22 22 21 21 21 21 21 22 22 23
Wind_Direction
182 176 174 181 182 179 154 116 90 81 81 72 37 24 26 13 328 300 303 295 296 295 290 289 295 302 307 306 304 302 301 304 303 302 303 306 306 304 303 299 291 286 283 277 267 265 267 267 267
198 195 197 205 201 196 168 114 85 82 94 58 35 16 2 350 334 302 289 291 288 289 286 287 293 296 298 299 301 300 298 296 296 295 298 303 301 301 296 297 292 286 286 280 275 273 272 272 271
204 207 218 222 224 234 258 349 42 47 38 3 3 356 334 327 320 305 294 301 299 293 290 288 291 293 295 296 299 301 297 296 293 292 296 299 299 298 298 293 287 284 285 286 278 274 273 274 275
217 213 228 232 236 235 256 280 320 344 330 313 318 325 319 320 324 309 299 302 300 294 296 294 292 293 295 298 299 301 298 298 294 292 295 296 296 297 295 292 285 282 280 281 280 276 275 275 275
229 231 236 238 240 232 254 280 299 315 310 305 306 300 303 311 315 310 306 303 300 299 301 300 294 293 294 296 295 298 302 306 301 297 294 291 292 294 295 293 286 283 283 283 280 278 276 275 275
231 237 240 246 254 250 271 290 293 296 298 304 302 293 296 305 307 307 307 305 299 294 294 294 295 296 297 297 293 294 296 299 302 299 298 296 293 291 290 287 282 280 281 284 283 281 279 277 276
240 244 246 250 262 269 284 294 289 288 289 293 295 294 291 296 301 303 303 301 297 293 292 292 293 294 296 297 296 295 295 297 298 297 296 297 294 293 294 291 286 281 278 280 282 282 279 278 277
247 253 257 263 272 276 280 284 284 284 287 287 290 298 297 300 303 302 299 298 296 294 294 294 291 293 295 295 293 293 296 297 296 293 293 296 293 289 290 289 288 284 281 281 281 281 279 279 278
251 256 261 267 276 278 281 287 287 284 285 288 292 299 303 300 300 299 298 297 298 297 296 296 294 292 292 292 293 293 295 296 294 291 289 289 289 287 288 287 286 286 283 283 281 280 282 285 283
255 265 264 267 272 274 279 283 282 284 290 292 295 299 301 299 299 298 299 297 299 300 299 298 299 295 293 292 292 293 294 293 292 290 289 287 286 287 284 285 285 287 284 286 285 283 283 285 283
259 264 267 268 271 272 277 276 275 282 287 288 291 297 300 302 303 303 301 300 298 297 300 300 301 301 298 296 296 295 294 293 291 289 288 286 284 284 282 281 283 285 285 285 284 286 286 285 284
257 260 263 266 269 269 274 275 275 282 282 282 286 291 295 298 298 300 302 302 303 302 299 298 301 303 303 299 299 301 296 293 291 288 286 285 287 287 283 279 281 282 283 280 281 287 287 287 285
259 259 264 267 270 272 275 276 281 285 281 280 283 288 291 292 290 293 296 295 298 300 301 297 299 302 303 300 299 301 299 295 290 287 288 289 287 287 283 280 279 282 284 284 286 285 284 285 285
260 260 265 268 270 274 275 277 280 284 284 282 284 287 289 288 288 287 289 292 296 300 298 296 298 301 299 298 297 299 296 294 291 287 288 288 286 286 283 283 283 286 285 284 284 282 281 283 282
262 262 264 267 270 274 276 275 277 281 282 282 283 283 285 287 287 287 289 293 295 295 296 297 297 300 302 301 299 298 297 295 293 292 290 289 288 287 287 286 286 285 282 283 284 283 281 281 281
266 265 266 267 268 271 273 273 275 275 277 277 279 281 283 284 284 288 291 293 293 292 295 299 298 299 303 303 301 300 300 300 296 293 290 290 290 290 287 286 286 287 285 286 286 287 285 284 283
266 267 267 267 268 267 269 271 272 274 273 272 273 276 280 282 284 285 287 288 291 292 295 296 296 296 299 303 304 302 302 301 297 293 290 290 289 290 291 287 286 286 287 286 286 288 288 288 287
266 268 268 268 268 266 268 272 274 275 274 272 273 276 278 280 282 283 285 286 288 290 292 293 296 296 296 298 301 301 299 298 296 293 290 289 289 289 290 291 290 289 290 289 287 286 288 290 290
268 267 268 268 267 266 268 270 272 274 275 275 275 276 278 280 282 284 286 287 286 286 288 290 292 294 296 297 296 295 295 294 293 290 288 290 289 288 289 289 292 293 291 290 289 288 290 291 291
269 268 268 266 266 266 266 267 267 270 272 273 275 276 277 280 281 281 282 287 288 285 284 284 287 290 291 293 294 296 298 298 297 293 290 291 290 288 289 288 289 291 291 291 292 290 291 291 292
270 268 268 267 266 267 266 264 266 266 266 267 273 275 275 277 279 278 279 282 284 283 283 283 284 288 289 290 290 292 294 293 294 294 292 291 290 289 287 288 288 288 288 290 290 289 290 292 293
266 267 266 266 265 266 267 266 266 267 265 267 269 275 277 276 279 279 279 280 282 283 281 280 281 284 286 286 287 289 289 289 289 289 290 289 289 290 289 288 287 287 285 285 288 289 290 292 293
265 265 265 265 266 267 268 268 266 267 268 268 268 274 275 274 274 278 279 280 280 281 281 278 280 281 281 281 282 284 284 285 286 286 287 288 290 289 288 290 288 285 284 282 284 287 288 289 290
262 262 264 264 266 266 267 268 268 268 269 270 272 276 277 276 275 276 279 279 278 278 278 275 276 279 281 280 279 281 282 283 283 284 287 287 290 290 288 289 290 287 283 281 280 282 285 287 286
259 260 265 267 266 267 265 264 268 269 268 270 272 275 274 273 275 278 279 280 279 281 279 277 275 276 277 278 278 280 281 282 284 285 286 286 287 288 287 285 286 286 284 281 280 282 283 285 286
260 261 265 268 270 270 267 266 268 271 272 272 269 272 272 271 272 275 277 275 278 281 281 279 279 277 276 276 279 280 279 279 281 283 283 283 283 284 284 283 282 283 283 281 281 282 283 284 285
262 260 263 265 267 269 268 269 269 271 270 269 268 270 271 270 270 274 276 277 279 280 279 280 280 279 277 275 275 278 278 279 279 280 281 281 280 281 283 283 282 281 282 283 281 281 283 284 285
262 263 264 265 267 268 270 268 271 272 270 269 271 271 272 272 272 274 276 277 277 278 278 278 279 278 277 276 275 276 277 278 278 278 279 281 280 279 281 281 280 279 279 281 281 280 282 284 285
260 263 265 267 268 270 271 271 269 271 272 272 272 274 275 273 273 273 274 278 278 277 276 276 277 277 276 276 276 275 276 277 278 278 279 279 280 279 279 280 278 278 279 280 280 280 281 282 284
261 264 267 269 269 271 274 272 272 270 273 273 273 275 274 272 272 274 274 276 279 280 280 278 276 275 274 275 277 276 274 275 276 277 278 279 279 279 278 278 277 278 279 280 281 283 283 283 283
Height
5884 5884 5884 5885 5886 5886 5885 5885 5884 5884 5885 5884 5884 5884 5884 5885 5886 5887 5885 5883 5883 5883 5882 5882 5882 5881 5881 5881 5880 5880 5880 5879 5879 5878 5878 5877 5876 5875 5874 5874 5873 5873 5872 5872 5871 5871 5871 5871 5870
5883 5884 5885 5886 5885 5885 5885 5885 5885 5884 5885 5884 5884 5884 5884 5884 5884 5884 5883 5883 5882 5882 5882 5881 5881 5881 5880 5880 5880 5879 5879 5878 5878 5877 5877 5876 5875 5874 5873 5873 5872 5872 5871 5871 5871 5870 5870 5870 5869
5883 5884 5885 5885 5885 5885 5885 5884 5884 5884 5884 5884 5884 5884 5884 5883 5883 5883 5882 5882 5881 5881 5881 5881 5880 5880 5879 5879 5879 5878 5877 5877 5876 5876 5875 5875 5874 5873 5873 5872 5871 5871 5870 5870 5869 5869 5869 5868 5868
5884 5885 5885 5885 5884 5885 5884 5884 5884 5884 5884 5884 5884 5883 5883 5883 5882 5882 5881 5881 5881 5880 5880 5880 5879 5879 5878 5878 5877 5877 5876 5876 5875 5875 5874 5873 5873 5872 5871 5871 5870 5870 5869 5869 5868 5868 5867 5867 5867
5883 5884 5885 5884 5884 5884 5884 5883 5883 5883 5883 5883 5883 5883 5882 5882 5882 5881 5880 5880 5880 5879 5879 5879 5878 5878 5877 5877 5876 5876 5875 5874 5874 5873 5872 5872 5871 5871 5870 5869 5869 5868 5868 5867 5867 5866 5866 5865 5865
5883 5884 5884 5883 5883 5883 5883 5883 5883 5883 5882 5882 5882 5882 5881 5882 5881 5880 5879 5879 5879 5878 5878 5877 5877 5877 5876 5876 5875 5874 5874 5873 5872 5871 5871 5870 5870 5869 5868 5868 5867 5867 5866 5865 5865 5864 5864 5864 5863
5883 5883 5883 5883 5883 5883 5883 5882 5882 5882 5881 5882 5881 5881 5880 5880 5880 5879 5878 5878 5877 5877 5876 5876 5876 5875 5875 5874 5873 5873 5872 5871 5870 5870 5869 5868 5868 5867 5866 5866 5865 5864 5864 5863 5863 5863 5862 5862 5861
5882 5883 5882 5882 5882 5882 5882 5881 5881 5881 5881 5881 5880 5880 5879 5879 5878 5878 5877 5876 5876 5875 5875 5875 5874 5874 5873 5872 5872 5871 5870 5869 5868 5868 5867 5867 5866 5865 5865 5864 5863 5862 5862 5861 5861 5861 5860 5860 5859
5881 5882 5881 5881 5881 5881 5880 5880 5880 5880 5880 5879 5879 5878 5878 5878 5877 5877 5876 5875 5874 5874 5873 5873 5872 5872 5871 5871 5870 5869 5868 5867 5866 5866 5865 5865 5864 5863 5863 5862 5861 5860 5860 5859 5859 5858 5858 5858 5857
5880 5880 5880 5880 5880 5879 5879 5879 5879 5879 5878 5878 5878 5877 5877 5876 5876 5875 5875 5874 5873 5872 5872 5871 5870 5870 5869 5869 5868 5867 5866 5865 5864 5864 5863 5863 5862 5861 5861 5860 5859 5859 5858 5858 5857 5857 5856 5855 5855
5878 5878 5878 5878 5878 5878 5877 5878 5878 5877 5877 5877 5876 5876 5875 5874 5874 5873 5873 5872 5871 5871 5870 5869 5869 5868 5867 5867 5866 5865 5864 5863 5862 5862 5861 5860 5860 5859 5858 5858 5857 5857 5856 5855 5855 5854 5853 5853 5852
5876 5876 5876 5877 5876 5876 5876 5876 5876 5876 5876 5875 5875 5874 5874 5873 5873 5872 5871 5871 5870 5869 5869 5868 5867 5866 5865 5865 5864 5863 5862 5861 5860 5859 5859 5858 5857 5857 5856 5855 5855 5854 5854 5853 5853 5852 5851 5851 5850
5874 5874 5874 5874 5874 5874 5874 5874 5874 5874 5874 5873 5873 5872 5872 5871 5871 5870 5870 5869 5868 5868 5867 5866 5865 5864 5864 5863 5862 5861 5860 5859 5858 5857 5856 5856 5855 5854 5854 5853 5852 5852 5851 5850 5850 5850 5849 5848 5848
5872 5872 5872 5872 5872 5872 5872 5872 5872 5872 5871 5871 5871 5870 5870 5870 5869 5868 5868 5867 5866 5866 5865 5865 5864 5863 5862 5861 5860 5859 5858 5857 5856 5855 5854 5853 5852 5852 5851 5851 5850 5849 5848 5848 5847 5847 5846 5846 5845
5870 5870 5870 5870 5870 5870 5870 5870 5870 5869 5869 5869 5868 5868 5868 5867 5867 5866 5865 5865 5864 5864 5863 5862 5861 5860 5859 5858 5857 5856 5855 5854 5853 5852 5851 5850 5850 5849 5848 5848 5847 5846 5846 5845 5845 5844 5843 5843 5842
5868 5868 5868 5868 5867 5867 5869 5868 5867 5867 5866 5866 5866 5866 5865 5865 5864 5863 5863 5862 5862 5862 5861 5860 5859 5858 5857 5856 5855 5854 5853 5852 5851 5850 5849 5848 5847 5846 5845 5845 5844 5844 5843 5843 5842 5841 5841 5840 5839
5865 5865 5865 5865 5865 5864 5865 5864 5864 5864 5863 5863 5863 5863 5863 5862 5862 5861 5861 5860 5859 5859 5858 5857 5856 5856 5855 5854 5852 5851 5850 5849 5848 5847 5846 5846 5845 5844 5843 5842 5842 5841 5841 5840 5840 5839 5838 5837 5836
5863 5863 5862 5862 5862 5861 5861 5861 5861 5860 5860 5860 5860 5860 5860 5860 5859 5858 5858 5857 5856 5856 5855 5854 5854 5853 5852 5851 5850 5849 5848 5846 5845 5845 5844 5843 5842 5841 5841 5840 5839 5839 5838 5837 5837 5836 5835 5834 5833
5860 5859 5859 5859 5858 5858 5857 5858 5858 5857 5857 5857 5856 5857 5857 5857 5856 5855 5854 5853 5853 5853 5852 5851 5851 5850 5849 5848 5847 5846 5845 5844 5843 5842 5841 5840 5840 5839 5838 5838 5837 5836 5835 5835 5834 5833 5832 5831 5830
5856 5856 5856 5855 5855 5854 5854 5854 5854 5854 5854 5854 5853 5853 5854 5853 5853 5852 5851 5850 5850 5849 5848 5848 5847 5846 5846 5845 5844 5843 5842 5841 5840 5839 5838 5838 5837 5836 5835 5835 5834 5833 5832 5832 5831 5830 5829 5828 5827
5852 5852 5852 5851 5851 5851 5851 5851 5851 5851 5851 5851 5850 5850 5850 5849 5849 5848 5848 5847 5846 5845 5845 5844 5844 5843 5842 5841 5841 5840 5839 5838 5837 5836 5836 5835 5834 5833 5832 5832 5831 5830 5829 5828 5828 5827 5826 5825 5824
5848 5848 5848 5847 5847 5847 5848 5847 5848 5847 5847 5847 5847 5846 5845 5845 5845 5844 5844 5843 5842 5842 5841 5840 5840 5839 5838 5838 5837 5836 5836 5835 5834 5833 5833 5832 5831 5830 5829 5829 5828 5827 5826 5825 5824 5823 5822 5821 5820
5844 5843 5844 5844 5843 5843 5843 5843 5844 5844 5843 5843 5843 5842 5841 5841 5841 5840 5839 5839 5838 5838 5837 5836 5836 5835 5835 5834 5833 5833 5832 5831 5831 5830 5829 5829 5828 5827 5826 5825 5824 5823 5822 5821 5820 5820 5819 5818 5817
5839 5840 5839 5839 5839 5840 5840 5839 5839 5839 5839 5839 5839 5838 5838 5837 5837 5836 5835 5835 5834 5834 5833 5832 5832 5831 5831 5830 5829 5829 5829 5828 5827 5826 5825 5825 5824 5823 5822 5821 5820 5819 5818 5817 5817 5816 5815 5814 5813
5835 5836 5836 5835 5835 5836 5835 5834 5835 5835 5835 5835 5834 5834 5834 5833 5832 5832 5831 5831 5830 5830 5829 5828 5828 5827 5827 5826 5825 5825 5825 5824 5823 5822 5821 5821 5820 5819 5818 5817 5816 5815 5814 5813 5812 5811 5810 5809 5808
5831 5831 5832 5831 5831 5831 5830 5830 5831 5830 5830 5829 5829 5829 5828 5828 5828 5827 5827 5826 5826 5825 5824 5824 5823 5823 5822 5822 5821 5821 5820 5819 5819 5818 5817 5816 5815 5814 5813 5812 5812 5811 5810 5809 5808 5807 5806 5805 5804
5827 5826 5827 5827 5826 5826 5826 5826 5826 5825 5825 5825 5824 5824 5823 5823 5823 5822 5822 5822 5821 5820 5820 5819 5818 5818 5817 5817 5816 5815 5815 5814 5814 5813 5812 5811 5810 5809 5809 5808 5807 5806 5805 5804 5803 5802 5801 5800 5799
5823 5822 5822 5822 5821 5821 5821 5821 5822 5821 5820 5820 5819 5819 5819 5819 5818 5818 5817 5817 5816 5815 5814 5814 5813 5812 5812 5811 5811 5810 5809 5808 5808 5807 5807 5806 5805 5804 5803 5803 5802 5801 5800 5799 5798 5797 5796 5795 5793
5818 5818 5817 5817 5817 5817 5817 5819 5817 5816 5815 5815 5815 5814 5814 5813 5813 5812 5812 5811 5810 5809 5809 5808 5807 5806 5806 5805 5805 5804 5803 5802 5802 5801 5801 5800 5799 5798 5797 5797 5796 5795 5794 5793 5792 5791 5790 5789 5787
5813 5813 5813 5813 5812 5811 5811 5815 5812 5811 5810 5809 5809 5809 5808 5808 5807 5807 5806 5805 5804 5803 5803 5802 5801 5800 5799 5799 5798 5797 5797 5796 5795 5795 5794 5794 5793 5792 5791 5790 5790 5789 5788 5787 5786 5785 5784 5783 5781